Location: Unspecified
(0.0000°N, 0.0000°E)
Time: 05:27:30
(UTC+00:00)

Vanguard 2 Rocket - Pass Details

Date: 15 December 2017
Orbit: 556 x 3326 km, 32.9° (Epoch: 18 January)

Event Time Altitude Azimuth Distance (km) Brightness Sun altitude
Rises 04:47:39 0° 289° (WNW) 6,996 - -15.5°
Reaches altitude 10° 04:53:17 10° 283° (WNW) 5,667 - -14.2°
Exits shadow 04:55:14 14° 280° (W) 5,198 10.1 -13.7°
Maximum altitude 05:07:28 39° 221° (SW) 2,793 9.2 -10.9°
Drops below altitude 10° 05:16:14 10° 154° (SSE) 3,513 10.7 -8.9°
Sets 05:18:54 0° 145° (SE) 4,175 11.4 -8.3°
